Southend-On-Sea, United Kingdom

12:38 AM BST on March 27, 2017 (GMT +0100)
Southend

Weather History for EGMC - May, 2013

Change the Weather History Date:

Saturday, May 11, 2013

  Actual Average Record
Temperature  
Mean Temperature 52 °F -  
Max Temperature 59 °F 62 °F 71 °F (2006)
Min Temperature 44 °F 48 °F 35 °F (2005)
Degree Days  
Heating Degree Days 14    
Growing Degree Days 2 (Base 50)    
Moisture  
Dew Point 43 °F    
Average Humidity 74    
Maximum Humidity 93    
Minimum Humidity 54    
Precipitation  
Precipitation 0.00 in - - ()
Sea Level Pressure  
Sea Level Pressure 29.83 in    
Wind  
Wind Speed 12 mph ()    
Max Wind Speed 21 mph    
Max Gust Speed 37 mph    
Visibility 6.2 miles    
Events Rain    
Averages and records for this station are not official NWS values.
T = Trace of Precipitation, MM = Missing Value Source: Averaged Metar Reports

Daily Weather History Graph

Daily Weather History Graph

Search for Another Location

Airport or City:

Trip Planner

Search our weather history database for the weather conditions in past years. The results will help you decide how hot, cold, wet, or windy it might be!

Date:

Astronomy

May. 11, 2013 Rise Set
Actual Time 5:11 AM BST 8:36 PM BST
Civil Twilight 4:30 AM BST 9:17 PM BST
Nautical Twilight 3:36 AM BST 10:12 PM BST
Astronomical Twilight 2:20 AM BST 11:30 PM BST
Moon 6:04 AM BST (5/11) 10:08 PM BST (5/11)
Length of Visible Light 16h 47m
Length of Day
15h 25m
New Moon, 2% of the Moon is Illuminated
May 11
New Moon
May 18
First Quarter
May 25
Full
May 31
Last Quarter
Jun 8
New

Hourly Weather History & Observations

Time (BST) Temp. Windchill Dew Point Humidity Pressure Visibility Wind Dir Wind Speed Gust Speed Precip Events Conditions
12:50 AM 51.8 °F - 41.0 °F 67% 29.89 in 6.2 mi WSW 11.5 mph - N/A   Mostly Cloudy
1:20 AM 50.0 °F - 41.0 °F 71% 29.89 in 6.2 mi WSW 11.5 mph - N/A   Overcast
1:50 AM 50.0 °F - 42.8 °F 76% 29.89 in 6.2 mi West 10.4 mph - N/A   Overcast
2:20 AM 48.2 °F - 44.6 °F 87% 29.89 in 6.2 mi West 10.4 mph - N/A Rain Light Rain
2:50 AM 46.4 °F 42.9 °F 44.6 °F 93% 29.89 in 6.2 mi West 6.9 mph - N/A Rain Light Rain
3:50 AM 48.2 °F - 44.6 °F 87% 29.86 in 6.2 mi SSE 5.8 mph - N/A   Partly Cloudy
4:50 AM 46.4 °F 41.9 °F 42.8 °F 87% 29.86 in 6.2 mi WSW 9.2 mph - N/A   Scattered Clouds
5:20 AM 46.4 °F 42.4 °F 42.8 °F 87% 29.86 in 6.2 mi SW 8.1 mph - N/A   Scattered Clouds
5:50 AM 46.4 °F 42.4 °F 42.8 °F 87% 29.86 in 6.2 mi SW 8.1 mph - N/A   Partly Cloudy
6:20 AM 46.4 °F 41.9 °F 42.8 °F 87% 29.86 in 6.2 mi SW 9.2 mph - N/A   Partly Cloudy
6:50 AM 46.4 °F 41.1 °F 42.8 °F 87% 29.86 in 6.2 mi SW 11.5 mph - N/A   Partly Cloudy
7:20 AM 48.2 °F - 42.8 °F 82% 29.86 in 6.2 mi SW 12.7 mph - N/A   Partly Cloudy
7:50 AM 50.0 °F - 42.8 °F 76% 29.86 in 6.2 mi SW 15.0 mph - N/A   Partly Cloudy
8:20 AM 50.0 °F - 42.8 °F 76% 29.86 in 6.2 mi SW 15.0 mph - N/A   Scattered Clouds
8:50 AM 50.0 °F - 42.8 °F 76% 29.86 in 6.2 mi SW 16.1 mph - N/A   Scattered Clouds
9:20 AM 50.0 °F - 42.8 °F 76% 29.83 in 6.2 mi SW 17.3 mph - N/A   Scattered Clouds
9:50 AM 51.8 °F - 42.8 °F 71% 29.83 in 6.2 mi SSW 17.3 mph - N/A   Scattered Clouds
10:20 AM 51.8 °F - 44.6 °F 76% 29.83 in 6.2 mi SSW 18.4 mph - N/A Rain Light Rain Showers
10:50 AM 48.2 °F - 42.8 °F 82% 29.83 in 6.2 mi WSW 11.5 mph - N/A   Scattered Clouds
11:20 AM 53.6 °F - 44.6 °F 72% 29.83 in 6.2 mi WSW 15.0 mph - N/A   Scattered Clouds
11:50 AM 53.6 °F - 41.0 °F 62% 29.80 in 6.2 mi WSW 18.4 mph - N/A   Scattered Clouds
12:20 PM 55.4 °F - 41.0 °F 58% 29.80 in 6.2 mi WSW 15.0 mph 26.5 mph N/A   Scattered Clouds
12:50 PM 57.2 °F - 41.0 °F 55% 29.80 in 6.2 mi WSW 19.6 mph - N/A   Scattered Clouds
1:20 PM 57.2 °F - 42.8 °F 59% 29.80 in 6.2 mi WSW 18.4 mph - N/A   Scattered Clouds
1:50 PM 57.2 °F - 42.8 °F 59% 29.80 in 6.2 mi WSW 20.7 mph - N/A   Scattered Clouds
2:20 PM 57.2 °F - 44.6 °F 63% 29.80 in 6.2 mi WSW 18.4 mph 29.9 mph N/A Rain Light Rain Showers
2:50 PM 59.0 °F - 44.6 °F 59% 29.80 in 6.2 mi WSW 20.7 mph - N/A   Scattered Clouds
3:20 PM 55.4 °F - 48.2 °F 77% 29.80 in 6.2 mi SW 20.7 mph - N/A Rain Light Rain Showers
3:50 PM 53.6 °F - 48.2 °F 82% 29.77 in 6.2 mi SW 16.1 mph - N/A   Scattered Clouds
4:20 PM 53.6 °F - 48.2 °F 82% 29.77 in 6.2 mi SW 16.1 mph 27.6 mph N/A Rain Light Rain Showers
4:50 PM 55.4 °F - 48.2 °F 77% 29.77 in 6.2 mi SW 17.3 mph - N/A   Partly Cloudy
5:20 PM 55.4 °F - 46.4 °F 72% 29.77 in 6.2 mi WSW 17.3 mph - N/A   Partly Cloudy
5:50 PM 55.4 °F - 41.0 °F 58% 29.77 in 6.2 mi WSW 15.0 mph - N/A   Partly Cloudy
6:20 PM 55.4 °F - 39.2 °F 54% 29.77 in 6.2 mi WSW 19.6 mph 31.1 mph N/A   Partly Cloudy
6:50 PM 55.4 °F - 39.2 °F 54% 29.77 in 6.2 mi WSW 17.3 mph - N/A   Partly Cloudy
7:20 PM 53.6 °F - 39.2 °F 58% 29.80 in 6.2 mi WNW 16.1 mph 27.6 mph N/A   Scattered Clouds
7:50 PM 50.0 °F - 41.0 °F 71% 29.80 in 6.2 mi WNW 10.4 mph - N/A   Scattered Clouds
8:20 PM 50.0 °F - 37.4 °F 62% 29.80 in 6.2 mi West 13.8 mph - N/A   Scattered Clouds
8:50 PM 46.4 °F 38.7 °F 39.2 °F 76% 29.83 in 6.2 mi West 20.7 mph 36.8 mph N/A Rain Light Rain Showers
9:20 PM 46.4 °F 38.7 °F 41.0 °F 81% 29.83 in 6.2 mi West 20.7 mph 36.8 mph N/A Rain Rain Showers
9:50 PM 46.4 °F 41.1 °F 41.0 °F 81% 29.86 in 6.2 mi West 11.5 mph - N/A Rain Light Rain Showers
10:20 PM 44.6 °F 39.2 °F 41.0 °F 87% 29.86 in 6.2 mi West 10.4 mph - N/A Rain Light Rain Showers
10:50 PM 44.6 °F 40.7 °F 41.0 °F 87% 29.86 in 6.2 mi West 6.9 mph - N/A   Partly Cloudy
11:20 PM 44.6 °F 39.7 °F 41.0 °F 87% 29.86 in 6.2 mi West 9.2 mph - N/A   Partly Cloudy
11:50 PM 44.6 °F 38.8 °F 41.0 °F 87% 29.86 in 6.2 mi West 11.5 mph - N/A   Partly Cloudy